Time,TemperatureF,DewpointF,PressureIn,WindDirection,WindDirectionDegrees,WindSpeedMPH,WindSpeedGustMPH,Humidity,HourlyPrecipIn,Conditions,Clouds,dailyrainin,SoftwareType,DateUTC
2013-01-27 00:00:00,12.8,10.4,30.49,ENE,68,0.0,1.0,90,0.00,,---,0.00,VWS V14.01,2013-01-27 05:00:00,
2013-01-27 00:01:00,12.8,10.4,30.49,ENE,68,0.0,1.0,90,0.00,,---,0.00,VWS V14.01,2013-01-27 05:01:00,
2013-01-27 00:03:00,12.9,10.8,30.49,SSE,155,1.0,1.0,91,0.00,,---,0.00,VWS V14.01,2013-01-27 05:03:00,
2013-01-27 00:08:00,13.4,11.3,30.49,SSE,155,0.0,1.0,91,0.00,,---,0.00,VWS V14.01,2013-01-27 05:08:00,
2013-01-27 00:13:00,13.5,11.4,30.48,SSE,155,0.0,1.0,91,0.00,,---,0.00,VWS V14.01,2013-01-27 05:13:00,
2013-01-27 00:18:00,13.6,11.5,30.48,SSE,155,0.0,1.0,91,0.00,,---,0.00,VWS V14.01,2013-01-27 05:18:00,
2013-01-27 00:24:00,13.5,11.4,30.49,SSE,155,0.0,1.0,91,0.00,,---,0.00,VWS V14.01,2013-01-27 05:24:00,
2013-01-27 00:29:00,13.5,11.4,30.49,SSE,155,0.0,1.0,91,0.00,,---,0.00,VWS V14.01,2013-01-27 05:29:00,
2013-01-27 00:34:00,13.3,10.9,30.49,SSE,155,0.0,1.0,90,0.00,,---,0.00,VWS V14.01,2013-01-27 05:34:00,
2013-01-27 00:39:00,13.1,10.7,30.49,SSE,153,0.0,1.0,90,0.00,,---,0.00,VWS V14.01,2013-01-27 05:39:00,
2013-01-27 00:44:00,12.8,10.4,30.50,SSE,153,0.0,1.0,90,0.00,,---,0.00,VWS V14.01,2013-01-27 05:44:00,
2013-01-27 00:49:00,12.6,10.2,30.50,SSE,155,0.0,1.0,90,0.00,,---,0.00,VWS V14.01,2013-01-27 05:49:00,
2013-01-27 00:54:00,12.6,10.5,30.50,SSE,155,0.0,1.0,91,0.00,,---,0.00,VWS V14.01,2013-01-27 05:54:00,
2013-01-27 00:59:00,12.5,10.4,30.50,SSE,155,0.0,1.0,91,0.00,,---,0.00,VWS V14.01,2013-01-27 05:59:00,
2013-01-27 01:04:00,12.4,10.3,30.49,SSE,155,0.0,0.0,91,0.00,,---,0.00,VWS V14.01,2013-01-27 06:04:00,
2013-01-27 01:10:00,12.4,10.5,30.49,SSE,153,1.0,1.0,92,0.00,,---,0.00,VWS V14.01,2013-01-27 06:10:00,
2013-01-27 01:15:00,13.0,11.4,30.49,SSE,159,2.0,4.0,93,0.00,,---,0.00,VWS V14.01,2013-01-27 06:15:00,
2013-01-27 01:20:00,13.9,12.2,30.49,South,170,0.0,4.0,93,0.00,,---,0.00,VWS V14.01,2013-01-27 06:20:00,
2013-01-27 01:25:00,14.2,12.6,30.50,South,170,0.0,4.0,93,0.00,,---,0.00,VWS V14.01,2013-01-27 06:25:00,
2013-01-27 01:30:00,13.9,11.8,30.50,South,170,0.0,4.0,91,0.00,,---,0.00,VWS V14.01,2013-01-27 06:30:00,
2013-01-27 01:35:00,13.3,11.2,30.50,South,170,0.0,4.0,91,0.00,,---,0.00,VWS V14.01,2013-01-27 06:35:00,
2013-01-27 01:40:00,12.6,10.2,30.50,SE,143,0.0,4.0,90,0.00,,---,0.00,VWS V14.01,2013-01-27 06:40:00,
2013-01-27 01:46:00,12.2,10.1,30.50,SE,143,0.0,4.0,91,0.00,,---,0.00,VWS V14.01,2013-01-27 06:46:00,
2013-01-27 01:51:00,12.2,10.1,30.50,SE,143,0.0,4.0,91,0.00,,---,0.00,VWS V14.01,2013-01-27 06:51:00,
2013-01-27 01:56:00,12.4,10.3,30.50,SE,143,0.0,4.0,91,0.00,,---,0.00,VWS V14.01,2013-01-27 06:56:00,
2013-01-27 02:01:00,12.1,10.0,30.49,SE,143,0.0,4.0,91,0.00,,---,0.00,VWS V14.01,2013-01-27 07:01:00,
2013-01-27 02:06:00,12.0,9.9,30.49,SE,143,0.0,0.0,91,0.00,,---,0.00,VWS V14.01,2013-01-27 07:06:00,
2013-01-27 02:13:00,12.1,10.0,30.49,SE,143,0.0,0.0,91,0.00,,---,0.00,VWS V14.01,2013-01-27 07:13:00,
2013-01-27 02:18:00,12.2,10.3,30.49,SE,144,0.0,0.0,92,0.00,,---,0.00,VWS V14.01,2013-01-27 07:18:00,
2013-01-27 02:23:00,12.0,9.9,30.49,SE,144,0.0,1.0,91,0.00,,---,0.00,VWS V14.01,2013-01-27 07:23:00,
2013-01-27 02:28:00,12.0,9.9,30.50,SE,143,0.0,1.0,91,0.00,,---,0.00,VWS V14.01,2013-01-27 07:28:00,
2013-01-27 02:33:00,12.0,9.9,30.50,SE,143,0.0,1.0,91,0.00,,---,0.00,VWS V14.01,2013-01-27 07:33:00,
2013-01-27 02:38:00,12.0,9.9,30.50,SE,144,1.0,1.0,91,0.00,,---,0.00,VWS V14.01,2013-01-27 07:38:00,
2013-01-27 02:43:00,12.4,10.5,30.50,SE,140,1.0,1.0,92,0.00,,---,0.00,VWS V14.01,2013-01-27 07:43:00,
2013-01-27 02:49:00,12.5,10.4,30.50,SE,139,0.0,1.0,91,0.00,,---,0.00,VWS V14.01,2013-01-27 07:49:00,
2013-01-27 02:54:00,12.4,10.3,30.50,SE,139,0.0,1.0,91,0.00,,---,0.00,VWS V14.01,2013-01-27 07:54:00,
2013-01-27 02:59:00,12.3,10.2,30.50,SE,139,0.0,1.0,91,0.00,,---,0.00,VWS V14.01,2013-01-27 07:59:00,
2013-01-27 03:04:00,12.3,10.2,30.50,NNE,20,0.0,1.0,91,0.00,,---,0.00,VWS V14.01,2013-01-27 08:04:00,
2013-01-27 03:09:00,12.3,10.2,30.49,NE,40,0.0,1.0,91,0.00,,---,0.00,VWS V14.01,2013-01-27 08:09:00,
2013-01-27 03:14:00,12.1,10.0,30.49,NE,39,1.0,1.0,91,0.00,,---,0.00,VWS V14.01,2013-01-27 08:14:00,
2013-01-27 03:19:00,12.0,9.9,30.49,NE,39,0.0,1.0,91,0.00,,---,0.00,VWS V14.01,2013-01-27 08:19:00,
2013-01-27 03:24:00,11.6,9.5,30.49,NE,39,0.0,1.0,91,0.00,,---,0.00,VWS V14.01,2013-01-27 08:24:00,
2013-01-27 03:29:00,11.1,8.8,30.49,NE,40,0.0,1.0,90,0.00,,---,0.00,VWS V14.01,2013-01-27 08:29:00,
2013-01-27 03:34:00,10.9,8.8,30.49,NE,40,0.0,1.0,91,0.00,,---,0.00,VWS V14.01,2013-01-27 08:34:00,
2013-01-27 03:40:00,10.9,8.8,30.48,NE,39,0.0,1.0,91,0.00,,---,0.00,VWS V14.01,2013-01-27 08:40:00,
2013-01-27 03:45:00,10.8,8.7,30.49,NE,39,0.0,1.0,91,0.00,,---,0.00,VWS V14.01,2013-01-27 08:45:00,
2013-01-27 03:50:00,10.6,8.5,30.49,NE,39,0.0,1.0,91,0.00,,---,0.00,VWS V14.01,2013-01-27 08:50:00,
2013-01-27 03:55:00,10.4,8.3,30.49,NE,39,0.0,1.0,91,0.00,,---,0.00,VWS V14.01,2013-01-27 08:55:00,
2013-01-27 04:00:00,10.1,8.0,30.48,NE,40,0.0,1.0,91,0.00,,---,0.00,VWS V14.01,2013-01-27 09:00:00,
2013-01-27 04:05:00,9.9,7.8,30.48,NE,40,0.0,0.0,91,0.00,,---,0.00,VWS V14.01,2013-01-27 09:05:00,
2013-01-27 04:10:00,10.0,7.9,30.49,NE,40,1.0,1.0,91,0.00,,---,0.00,VWS V14.01,2013-01-27 09:10:00,
2013-01-27 04:15:00,10.0,7.9,30.49,NE,39,0.0,1.0,91,0.00,,---,0.00,VWS V14.01,2013-01-27 09:15:00,
2013-01-27 04:20:00,9.9,7.8,30.49,SSE,164,0.0,1.0,91,0.00,,---,0.00,VWS V14.01,2013-01-27 09:20:00,
2013-01-27 04:25:00,10.2,8.3,30.49,SSE,163,0.0,1.0,92,0.00,,---,0.00,VWS V14.01,2013-01-27 09:25:00,
2013-01-27 04:31:00,10.2,8.3,30.49,SW,226,0.0,1.0,92,0.00,,---,0.00,VWS V14.01,2013-01-27 09:31:00,
2013-01-27 04:36:00,10.3,8.4,30.49,WSW,240,0.0,1.0,92,0.00,,---,0.00,VWS V14.01,2013-01-27 09:36:00,
2013-01-27 04:41:00,10.5,8.6,30.49,North,6,1.0,2.0,92,0.00,,---,0.00,VWS V14.01,2013-01-27 09:41:00,
2013-01-27 04:46:00,9.9,7.8,30.50,North,6,0.0,2.0,91,0.00,,---,0.00,VWS V14.01,2013-01-27 09:46:00,
2013-01-27 04:51:00,9.5,7.4,30.49,North,6,0.0,2.0,91,0.00,,---,0.00,VWS V14.01,2013-01-27 09:51:00,
2013-01-27 04:56:00,9.3,7.2,30.50,North,6,0.0,2.0,91,0.00,,---,0.00,VWS V14.01,2013-01-27 09:56:00,
2013-01-27 05:01:00,9.2,7.1,30.50,North,5,0.0,2.0,91,0.00,,---,0.00,VWS V14.01,2013-01-27 10:01:00,
2013-01-27 05:06:00,9.2,7.3,30.50,SW,225,0.0,1.0,92,0.00,,---,0.00,VWS V14.01,2013-01-27 10:06:00,
2013-01-27 05:11:00,9.1,7.0,30.50,SW,225,0.0,1.0,91,0.00,,---,0.00,VWS V14.01,2013-01-27 10:11:00,
2013-01-27 05:16:00,9.1,7.0,30.50,SW,225,0.0,1.0,91,0.00,,---,0.00,VWS V14.01,2013-01-27 10:16:00,
2013-01-27 05:22:00,9.1,7.0,30.50,SW,225,0.0,1.0,91,0.00,,---,0.00,VWS V14.01,2013-01-27 10:22:00,
2013-01-27 05:27:00,9.1,7.0,30.50,SW,225,0.0,1.0,91,0.00,,---,0.00,VWS V14.01,2013-01-27 10:27:00,
2013-01-27 05:32:00,9.1,7.0,30.50,SW,225,0.0,1.0,91,0.00,,---,0.00,VWS V14.01,2013-01-27 10:32:00,
2013-01-27 05:37:00,9.1,7.0,30.50,SW,225,0.0,1.0,91,0.00,,---,0.00,VWS V14.01,2013-01-27 10:37:00,
2013-01-27 05:42:00,9.1,7.0,30.50,SW,225,0.0,1.0,91,0.00,,---,0.00,VWS V14.01,2013-01-27 10:42:00,
2013-01-27 05:47:00,9.1,7.0,30.49,SW,225,0.0,1.0,91,0.00,,---,0.00,VWS V14.01,2013-01-27 10:47:00,
2013-01-27 05:52:00,9.1,7.0,30.49,SW,225,0.0,1.0,91,0.00,,---,0.00,VWS V14.01,2013-01-27 10:52:00,
2013-01-27 05:57:00,9.1,7.0,30.49,SW,225,0.0,1.0,91,0.00,,---,0.00,VWS V14.01,2013-01-27 10:57:00,
2013-01-27 06:02:00,9.1,7.0,30.48,SW,225,0.0,0.0,91,0.00,,---,0.00,VWS V14.01,2013-01-27 11:02:00,
2013-01-27 06:07:00,9.1,7.0,30.49,SW,225,0.0,0.0,91,0.00,,---,0.00,VWS V14.01,2013-01-27 11:07:00,
2013-01-27 06:12:00,9.1,7.0,30.49,SW,225,0.0,0.0,91,0.00,,---,0.00,VWS V14.01,2013-01-27 11:12:00,
2013-01-27 06:18:00,9.1,7.0,30.49,SW,225,0.0,0.0,91,0.00,,---,0.00,VWS V14.01,2013-01-27 11:18:00,
2013-01-27 06:23:00,9.1,7.0,30.49,SW,225,0.0,0.0,91,0.00,,---,0.00,VWS V14.01,2013-01-27 11:23:00,
2013-01-27 06:28:00,9.1,7.0,30.49,SW,225,0.0,0.0,91,0.00,,---,0.00,VWS V14.01,2013-01-27 11:28:00,
2013-01-27 06:33:00,9.1,7.0,30.50,SW,225,0.0,0.0,91,0.00,,---,0.00,VWS V14.01,2013-01-27 11:33:00,
2013-01-27 06:38:00,9.1,7.0,30.50,SW,225,0.0,0.0,91,0.00,,---,0.00,VWS V14.01,2013-01-27 11:38:00,
2013-01-27 06:43:00,9.1,7.0,30.50,SW,225,0.0,0.0,91,0.00,,---,0.00,VWS V14.01,2013-01-27 11:43:00,
2013-01-27 06:48:00,9.1,7.0,30.49,SW,225,0.0,0.0,91,0.00,,---,0.00,VWS V14.01,2013-01-27 11:48:00,
2013-01-27 06:53:00,9.1,7.0,30.49,SW,225,0.0,0.0,91,0.00,,---,0.00,VWS V14.01,2013-01-27 11:53:00,
2013-01-27 06:58:00,9.1,7.0,30.49,SW,225,0.0,0.0,91,0.00,,---,0.00,VWS V14.01,2013-01-27 11:58:00,
2013-01-27 07:04:00,9.1,7.0,30.49,SW,225,0.0,0.0,91,0.00,,---,0.00,VWS V14.01,2013-01-27 12:04:00,
2013-01-27 07:09:00,9.1,7.0,30.49,SW,225,0.0,0.0,91,0.00,,---,0.00,VWS V14.01,2013-01-27 12:09:00,
2013-01-27 07:14:00,9.1,7.0,30.49,SW,225,0.0,0.0,91,0.00,,---,0.00,VWS V14.01,2013-01-27 12:14:00,
2013-01-27 07:19:00,9.1,7.0,30.49,SW,225,0.0,0.0,91,0.00,,---,0.00,VWS V14.01,2013-01-27 12:19:00,
2013-01-27 07:24:00,9.1,7.0,30.48,SW,225,0.0,0.0,91,0.00,,---,0.00,VWS V14.01,2013-01-27 12:24:00,
2013-01-27 07:29:00,9.1,7.0,30.48,SW,225,0.0,0.0,91,0.00,,---,0.00,VWS V14.01,2013-01-27 12:29:00,
2013-01-27 07:34:00,9.1,7.0,30.48,SW,225,0.0,0.0,91,0.00,,---,0.00,VWS V14.01,2013-01-27 12:34:00,
2013-01-27 07:39:00,9.1,7.0,30.49,SW,225,0.0,0.0,91,0.00,,---,0.00,VWS V14.01,2013-01-27 12:39:00,
2013-01-27 07:44:00,9.1,7.0,30.49,SW,225,0.0,0.0,91,0.00,,---,0.00,VWS V14.01,2013-01-27 12:44:00,
2013-01-27 07:49:00,9.1,7.0,30.49,SW,225,0.0,0.0,91,0.00,,---,0.00,VWS V14.01,2013-01-27 12:49:00,
2013-01-27 07:55:00,9.1,7.0,30.48,SW,225,0.0,0.0,91,0.00,,---,0.00,VWS V14.01,2013-01-27 12:55:00,
2013-01-27 08:00:00,9.1,7.0,30.48,SW,225,0.0,0.0,91,0.00,,---,0.00,VWS V14.01,2013-01-27 13:00:00,
2013-01-27 08:05:00,9.1,7.0,30.48,SW,225,0.0,0.0,91,0.00,,---,0.00,VWS V14.01,2013-01-27 13:05:00,
2013-01-27 08:10:00,9.1,7.0,30.48,SW,225,0.0,0.0,91,0.00,,---,0.00,VWS V14.01,2013-01-27 13:10:00,
2013-01-27 08:15:00,9.1,7.0,30.48,SW,225,0.0,0.0,91,0.00,,---,0.00,VWS V14.01,2013-01-27 13:15:00,
2013-01-27 08:20:00,9.1,7.0,30.49,SW,225,0.0,0.0,91,0.00,,---,0.00,VWS V14.01,2013-01-27 13:20:00,
2013-01-27 08:25:00,9.1,7.0,30.50,SW,225,0.0,0.0,91,0.00,,---,0.00,VWS V14.01,2013-01-27 13:25:00,
2013-01-27 08:30:00,9.1,7.0,30.49,SW,225,0.0,0.0,91,0.00,,---,0.00,VWS V14.01,2013-01-27 13:30:00,
2013-01-27 08:35:00,9.1,7.0,30.50,SW,225,0.0,0.0,91,0.00,,---,0.00,VWS V14.01,2013-01-27 13:35:00,
2013-01-27 08:40:00,17.3,14.1,30.50,SSW,195,3.0,4.0,87,0.00,,---,0.00,VWS V14.01,2013-01-27 13:40:00,
2013-01-27 08:45:00,17.8,14.6,30.50,South,191,4.0,6.0,87,0.00,,---,0.00,VWS V14.01,2013-01-27 13:45:00,
2013-01-27 08:51:00,18.1,14.6,30.50,SSW,212,4.0,9.0,86,0.00,,---,0.00,VWS V14.01,2013-01-27 13:51:00,
2013-01-27 08:56:00,18.2,14.7,30.49,South,189,5.0,9.0,86,0.00,,---,0.00,VWS V14.01,2013-01-27 13:56:00,
2013-01-27 09:01:00,18.2,14.5,30.49,South,187,4.0,9.0,85,0.00,,---,0.00,VWS V14.01,2013-01-27 14:01:00,
2013-01-27 09:06:00,18.3,14.6,30.49,SSE,150,6.0,8.0,85,0.00,,---,0.00,VWS V14.01,2013-01-27 14:06:00,
2013-01-27 09:11:00,18.4,14.4,30.49,South,172,4.0,8.0,84,0.00,,---,0.00,VWS V14.01,2013-01-27 14:11:00,
2013-01-27 09:16:00,18.7,14.7,30.48,SE,129,6.0,10.0,84,0.00,,---,0.00,VWS V14.01,2013-01-27 14:16:00,
2013-01-27 09:21:00,19.0,14.7,30.48,SSE,155,5.0,10.0,83,0.00,,---,0.00,VWS V14.01,2013-01-27 14:21:00,
2013-01-27 09:27:00,19.4,14.8,30.48,SSE,159,8.0,10.0,82,0.00,,---,0.00,VWS V14.01,2013-01-27 14:27:00,
2013-01-27 09:32:00,19.8,14.9,30.48,South,175,4.0,10.0,81,0.00,,---,0.00,VWS V14.01,2013-01-27 14:32:00,
2013-01-27 09:37:00,20.1,15.2,30.49,SSW,200,5.0,10.0,81,0.00,,---,0.00,VWS V14.01,2013-01-27 14:37:00,
2013-01-27 09:42:00,20.5,15.3,30.49,SSW,210,5.0,10.0,80,0.00,,---,0.00,VWS V14.01,2013-01-27 14:42:00,
2013-01-27 09:47:00,20.7,15.2,30.49,SSE,159,7.0,10.0,79,0.00,,---,0.00,VWS V14.01,2013-01-27 14:47:00,
2013-01-27 09:52:00,21.0,15.5,30.49,SE,145,6.0,10.0,79,0.00,,---,0.00,VWS V14.01,2013-01-27 14:52:00,
2013-01-27 09:57:00,21.3,15.5,30.49,South,181,4.0,10.0,78,0.00,,---,0.00,VWS V14.01,2013-01-27 14:57:00,
2013-01-27 10:03:00,21.7,15.6,30.50,SSW,200,2.0,7.0,77,0.00,,---,0.00,VWS V14.01,2013-01-27 15:03:00,
2013-01-27 10:08:00,21.9,15.8,30.50,South,172,6.0,9.0,77,0.00,,---,0.00,VWS V14.01,2013-01-27 15:08:00,
2013-01-27 10:13:00,22.1,15.7,30.50,SSW,200,5.0,13.0,76,0.00,,---,0.00,VWS V14.01,2013-01-27 15:13:00,
2013-01-27 10:18:00,22.5,15.8,30.49,South,181,5.0,13.0,75,0.00,,---,0.00,VWS V14.01,2013-01-27 15:18:00,
2013-01-27 10:23:00,22.9,15.9,30.49,South,187,5.0,13.0,74,0.00,,---,0.00,VWS V14.01,2013-01-27 15:23:00,
2013-01-27 10:28:00,23.2,15.8,30.49,South,176,5.0,13.0,73,0.00,,---,0.00,VWS V14.01,2013-01-27 15:28:00,
2013-01-27 10:33:00,23.6,16.2,30.49,SSE,166,5.0,13.0,73,0.00,,---,0.00,VWS V14.01,2013-01-27 15:33:00,
2013-01-27 10:39:00,24.2,16.5,30.49,SSW,197,7.0,13.0,72,0.00,,---,0.00,VWS V14.01,2013-01-27 15:39:00,
2013-01-27 10:44:00,24.6,16.2,30.49,ESE,115,5.0,14.0,70,0.00,,---,0.00,VWS V14.01,2013-01-27 15:44:00,
2013-01-27 10:49:00,24.7,15.7,30.49,SSE,153,13.0,15.0,68,0.00,,---,0.00,VWS V14.01,2013-01-27 15:49:00,
2013-01-27 10:54:00,25.3,16.2,30.49,South,190,6.0,19.0,68,0.00,,---,0.00,VWS V14.01,2013-01-27 15:54:00,
2013-01-27 10:59:00,25.5,15.7,30.49,SE,139,6.0,19.0,66,0.00,,---,0.00,VWS V14.01,2013-01-27 15:59:00,
2013-01-27 11:04:00,25.5,16.1,30.50,SSW,193,5.0,12.0,67,0.00,,---,0.00,VWS V14.01,2013-01-27 16:04:00,
2013-01-27 11:09:00,25.4,16.0,30.50,SSW,205,11.0,14.0,67,0.00,,---,0.00,VWS V14.01,2013-01-27 16:09:00,
2013-01-27 11:14:00,25.4,15.6,30.50,SSW,198,12.0,15.0,66,0.00,,---,0.00,VWS V14.01,2013-01-27 16:14:00,
2013-01-27 11:19:00,25.5,15.7,30.50,SSW,205,10.0,15.0,66,0.00,,---,0.00,VWS V14.01,2013-01-27 16:19:00,
2013-01-27 11:24:00,25.5,15.4,30.50,SSW,200,6.0,15.0,65,0.00,,---,0.00,VWS V14.01,2013-01-27 16:24:00,
2013-01-27 11:29:00,25.6,15.8,30.50,SSE,153,8.0,15.0,66,0.00,,---,0.00,VWS V14.01,2013-01-27 16:29:00,
2013-01-27 11:35:00,25.7,15.2,30.50,SSE,153,10.0,17.0,64,0.00,,---,0.00,VWS V14.01,2013-01-27 16:35:00,
2013-01-27 11:40:00,25.7,15.2,30.50,South,184,8.0,17.0,64,0.00,,---,0.00,VWS V14.01,2013-01-27 16:40:00,
2013-01-27 11:45:00,25.8,15.0,30.49,SSE,165,13.0,17.0,63,0.00,,---,0.00,VWS V14.01,2013-01-27 16:45:00,
2013-01-27 11:50:00,25.8,15.0,30.49,SSE,150,8.0,19.0,63,0.00,,---,0.00,VWS V14.01,2013-01-27 16:50:00,
2013-01-27 11:55:00,25.8,15.3,30.49,SE,124,11.0,19.0,64,0.00,,---,0.00,VWS V14.01,2013-01-27 16:55:00,
2013-01-27 12:00:00,25.7,14.9,30.48,SSE,158,5.0,19.0,63,0.00,,---,0.00,VWS V14.01,2013-01-27 17:00:00,
2013-01-27 12:05:00,25.5,15.0,30.48,SSE,161,10.0,17.0,64,0.00,,---,0.00,VWS V14.01,2013-01-27 17:05:00,
2013-01-27 12:10:00,25.4,14.9,30.48,SE,131,11.0,17.0,64,0.00,,---,0.00,VWS V14.01,2013-01-27 17:10:00,
2013-01-27 12:15:00,25.5,15.4,30.48,SSW,209,5.0,17.0,65,0.00,,---,0.00,VWS V14.01,2013-01-27 17:15:00,
2013-01-27 12:20:00,25.6,15.1,30.48,South,179,6.0,17.0,64,0.00,,---,0.00,VWS V14.01,2013-01-27 17:20:00,
2013-01-27 12:25:00,25.6,15.1,30.48,SE,139,11.0,17.0,64,0.00,,---,0.00,VWS V14.01,2013-01-27 17:25:00,
2013-01-27 12:30:00,25.5,14.7,30.47,SSE,167,7.0,17.0,63,0.00,,---,0.00,VWS V14.01,2013-01-27 17:30:00,
2013-01-27 12:36:00,25.5,14.7,30.47,SE,146,6.0,17.0,63,0.00,,---,0.00,VWS V14.01,2013-01-27 17:36:00,
2013-01-27 12:41:00,25.7,15.2,30.47,SSE,162,9.0,17.0,64,0.00,,---,0.00,VWS V14.01,2013-01-27 17:41:00,
2013-01-27 12:46:00,25.8,15.3,30.47,SSE,166,9.0,17.0,64,0.00,,---,0.00,VWS V14.01,2013-01-27 17:46:00,
2013-01-27 12:51:00,25.8,15.0,30.47,SSE,153,8.0,17.0,63,0.00,,---,0.00,VWS V14.01,2013-01-27 17:51:00,
2013-01-27 12:56:00,25.9,15.1,30.48,SSE,157,8.0,17.0,63,0.00,,---,0.00,VWS V14.01,2013-01-27 17:56:00,
2013-01-27 13:01:00,26.1,15.2,30.47,South,170,9.0,17.0,63,0.00,,---,0.00,VWS V14.01,2013-01-27 18:01:00,
2013-01-27 13:06:00,26.1,15.2,30.47,SE,131,6.0,18.0,63,0.00,,---,0.00,VWS V14.01,2013-01-27 18:06:00,
2013-01-27 13:11:00,26.1,15.2,30.47,SSW,198,12.0,18.0,63,0.00,,---,0.00,VWS V14.01,2013-01-27 18:11:00,
2013-01-27 13:17:00,26.3,15.8,30.46,South,184,6.0,18.0,64,0.00,,---,0.00,VWS V14.01,2013-01-27 18:17:00,
2013-01-27 13:22:00,26.4,15.5,30.46,SW,224,5.0,18.0,63,0.00,,---,0.00,VWS V14.01,2013-01-27 18:22:00,
2013-01-27 13:27:00,26.4,15.5,30.46,South,187,15.0,18.0,63,0.00,,---,0.00,VWS V14.01,2013-01-27 18:27:00,
2013-01-27 13:32:00,26.3,15.4,30.45,SE,134,6.0,18.0,63,0.00,,---,0.00,VWS V14.01,2013-01-27 18:32:00,
2013-01-27 13:37:00,26.3,15.8,30.44,South,174,5.0,18.0,64,0.00,,---,0.00,VWS V14.01,2013-01-27 18:37:00,
2013-01-27 13:42:00,26.5,16.0,30.44,South,181,7.0,18.0,64,0.00,,---,0.00,VWS V14.01,2013-01-27 18:42:00,
2013-01-27 13:47:00,26.4,15.5,30.43,SE,134,10.0,18.0,63,0.00,,---,0.00,VWS V14.01,2013-01-27 18:47:00,
2013-01-27 13:52:00,26.4,15.9,30.43,SSE,154,6.0,18.0,64,0.00,,---,0.00,VWS V14.01,2013-01-27 18:52:00,
2013-01-27 13:57:00,26.6,16.1,30.42,SSW,200,9.0,18.0,64,0.00,,---,0.00,VWS V14.01,2013-01-27 18:57:00,
2013-01-27 14:03:00,26.7,16.2,30.42,SSW,197,4.0,10.0,64,0.00,,---,0.00,VWS V14.01,2013-01-27 19:03:00,
2013-01-27 14:08:00,27.1,16.6,30.42,SSE,153,3.0,10.0,64,0.00,,---,0.00,VWS V14.01,2013-01-27 19:08:00,
2013-01-27 14:13:00,27.4,16.5,30.42,South,191,6.0,11.0,63,0.00,,---,0.00,VWS V14.01,2013-01-27 19:13:00,
2013-01-27 14:18:00,27.3,16.4,30.42,ESE,108,8.0,11.0,63,0.00,,---,0.00,VWS V14.01,2013-01-27 19:18:00,
2013-01-27 14:23:00,27.3,16.8,30.41,South,181,4.0,12.0,64,0.00,,---,0.00,VWS V14.01,2013-01-27 19:23:00,
2013-01-27 14:28:00,27.6,16.7,30.41,South,180,7.0,12.0,63,0.00,,---,0.00,VWS V14.01,2013-01-27 19:28:00,
2013-01-27 14:33:00,27.5,16.6,30.41,SE,137,2.0,12.0,63,0.00,,---,0.00,VWS V14.01,2013-01-27 19:33:00,
2013-01-27 14:38:00,27.5,16.6,30.41,SE,146,7.0,12.0,63,0.00,,---,0.00,VWS V14.01,2013-01-27 19:38:00,
2013-01-27 14:43:00,27.6,16.7,30.40,ESE,120,4.0,12.0,63,0.00,,---,0.00,VWS V14.01,2013-01-27 19:43:00,
2013-01-27 14:49:00,27.6,16.7,30.40,SE,131,6.0,12.0,63,0.00,,---,0.00,VWS V14.01,2013-01-27 19:49:00,
2013-01-27 14:54:00,27.5,16.2,30.40,SE,138,6.0,13.0,62,0.00,,---,0.00,VWS V14.01,2013-01-27 19:54:00,
2013-01-27 14:59:00,27.5,16.6,30.39,ESE,105,9.0,13.0,63,0.00,,---,0.00,VWS V14.01,2013-01-27 19:59:00,
2013-01-27 15:04:00,27.5,16.6,30.39,SSE,157,9.0,11.0,63,0.00,,---,0.00,VWS V14.01,2013-01-27 20:04:00,
2013-01-27 15:09:00,27.5,16.9,30.39,SE,131,8.0,11.0,64,0.00,,---,0.00,VWS V14.01,2013-01-27 20:09:00,
2013-01-27 15:14:00,27.5,17.3,30.38,ESE,120,5.0,11.0,65,0.00,,---,0.00,VWS V14.01,2013-01-27 20:14:00,
2013-01-27 15:19:00,27.5,17.3,30.38,SE,143,3.0,11.0,65,0.00,,---,0.00,VWS V14.01,2013-01-27 20:19:00,
2013-01-27 15:24:00,27.3,17.1,30.38,SSE,161,7.0,12.0,65,0.00,,---,0.00,VWS V14.01,2013-01-27 20:24:00,
2013-01-27 15:29:00,27.3,17.5,30.38,SSE,157,5.0,12.0,66,0.00,,---,0.00,VWS V14.01,2013-01-27 20:29:00,
2013-01-27 15:34:00,27.5,17.6,30.38,SSE,150,4.0,12.0,66,0.00,,---,0.00,VWS V14.01,2013-01-27 20:34:00,
2013-01-27 15:39:00,27.5,17.3,30.38,SSE,159,6.0,12.0,65,0.00,,---,0.00,VWS V14.01,2013-01-27 20:39:00,
2013-01-27 15:45:00,27.2,17.4,30.38,SE,124,5.0,12.0,66,0.00,,---,0.00,VWS V14.01,2013-01-27 20:45:00,
2013-01-27 15:50:00,27.1,17.3,30.38,South,170,7.0,12.0,66,0.00,,---,0.00,VWS V14.01,2013-01-27 20:50:00,
2013-01-27 15:55:00,27.1,17.3,30.38,SSW,198,5.0,13.0,66,0.00,,---,0.00,VWS V14.01,2013-01-27 20:55:00,
2013-01-27 16:00:00,27.1,17.3,30.38,SSE,158,6.0,13.0,66,0.00,,---,0.00,VWS V14.01,2013-01-27 21:00:00,
2013-01-27 16:05:00,27.1,17.3,30.37,ESE,115,5.0,9.0,66,0.00,,---,0.00,VWS V14.01,2013-01-27 21:05:00,
2013-01-27 16:10:00,27.0,17.5,30.37,SE,136,5.0,9.0,67,0.00,,---,0.00,VWS V14.01,2013-01-27 21:10:00,
2013-01-27 16:15:00,27.0,17.5,30.37,SE,142,5.0,11.0,67,0.00,,---,0.00,VWS V14.01,2013-01-27 21:15:00,
2013-01-27 16:21:00,26.9,17.4,30.37,SSE,150,4.0,12.0,67,0.00,,---,0.00,VWS V14.01,2013-01-27 21:21:00,
2013-01-27 16:25:00,26.9,17.4,30.37,ESE,123,8.0,12.0,67,0.00,,---,0.00,VWS V14.01,2013-01-27 21:25:00,
2013-01-27 16:31:00,26.8,17.3,30.37,SE,134,7.0,12.0,67,0.00,,---,0.00,VWS V14.01,2013-01-27 21:31:00,
2013-01-27 16:36:00,26.8,17.7,30.37,SSW,194,4.0,12.0,68,0.00,,---,0.00,VWS V14.01,2013-01-27 21:36:00,
2013-01-27 16:41:00,26.9,17.8,30.37,SSE,160,7.0,12.0,68,0.00,,---,0.00,VWS V14.01,2013-01-27 21:41:00,
2013-01-27 16:46:00,26.9,17.8,30.37,South,186,6.0,13.0,68,0.00,,---,0.00,VWS V14.01,2013-01-27 21:46:00,
2013-01-27 16:51:00,26.9,17.8,30.37,SE,133,4.0,13.0,68,0.00,,---,0.00,VWS V14.01,2013-01-27 21:51:00,
2013-01-27 16:56:00,26.9,17.8,30.37,SE,143,5.0,13.0,68,0.00,,---,0.00,VWS V14.01,2013-01-27 21:56:00,
2013-01-27 17:01:00,26.9,17.8,30.37,SSE,155,4.0,5.0,68,0.00,,---,0.00,VWS V14.01,2013-01-27 22:01:00,
2013-01-27 17:07:00,26.9,17.8,30.37,ESE,105,5.0,9.0,68,0.00,,---,0.00,VWS V14.01,2013-01-27 22:07:00,
2013-01-27 17:12:00,26.9,18.1,30.37,SE,129,4.0,9.0,69,0.00,,---,0.00,VWS V14.01,2013-01-27 22:12:00,
2013-01-27 17:17:00,26.9,18.1,30.37,SSE,160,11.0,11.0,69,0.00,,---,0.00,VWS V14.01,2013-01-27 22:17:00,
2013-01-27 17:22:00,26.8,18.3,30.37,East,97,8.0,11.0,70,0.00,,---,0.00,VWS V14.01,2013-01-27 22:22:00,
2013-01-27 17:27:00,26.7,18.2,30.37,SE,139,4.0,11.0,70,0.00,,---,0.00,VWS V14.01,2013-01-27 22:27:00,
2013-01-27 17:32:00,26.7,18.6,30.37,SE,129,4.0,11.0,71,0.00,,---,0.00,VWS V14.01,2013-01-27 22:32:00,
2013-01-27 17:37:00,26.6,18.5,30.38,SSE,156,3.0,11.0,71,0.00,,---,0.00,VWS V14.01,2013-01-27 22:37:00,
2013-01-27 17:43:00,26.6,19.1,30.38,SSE,149,3.0,11.0,73,0.00,,---,0.00,VWS V14.01,2013-01-27 22:43:00,
2013-01-27 17:48:00,26.5,19.0,30.38,SSE,163,6.0,12.0,73,0.00,,---,0.00,VWS V14.01,2013-01-27 22:48:00,
2013-01-27 17:53:00,26.3,19.1,30.38,SSE,156,11.0,12.0,74,0.00,,---,0.00,VWS V14.01,2013-01-27 22:53:00,
2013-01-27 17:58:00,26.2,19.1,30.38,SE,143,4.0,12.0,74,0.00,,---,0.00,VWS V14.01,2013-01-27 22:58:00,
2013-01-27 18:03:00,26.1,19.3,30.38,SE,129,7.0,12.0,75,0.00,,---,0.00,VWS V14.01,2013-01-27 23:03:00,
2013-01-27 18:08:00,26.0,19.5,30.38,SE,127,10.0,12.0,76,0.00,,---,0.00,VWS V14.01,2013-01-27 23:08:00,
2013-01-27 18:13:00,25.8,19.6,30.39,SE,131,3.0,12.0,77,0.00,,---,0.00,VWS V14.01,2013-01-27 23:13:00,
2013-01-27 18:18:00,25.5,20.2,30.39,SSE,160,4.0,12.0,80,0.00,,---,0.00,VWS V14.01,2013-01-27 23:18:00,
2013-01-27 18:23:00,25.1,20.7,30.38,East,101,4.0,13.0,83,0.00,,---,0.00,VWS V14.01,2013-01-27 23:23:00,
2013-01-27 18:28:00,24.8,20.9,30.38,ESE,121,7.0,13.0,85,0.00,,---,0.00,VWS V14.01,2013-01-27 23:28:00,
2013-01-27 18:33:00,24.6,21.0,30.37,ESE,113,6.0,13.0,86,0.00,,---,0.00,VWS V14.01,2013-01-27 23:33:00,
2013-01-27 18:39:00,24.4,21.4,30.37,ESE,107,6.0,13.0,88,0.00,,---,0.00,VWS V14.01,2013-01-27 23:39:00,
2013-01-27 18:44:00,24.3,21.3,30.36,SE,133,5.0,13.0,88,0.00,,---,0.00,VWS V14.01,2013-01-27 23:44:00,
2013-01-27 18:49:00,24.2,21.4,30.36,SSE,151,2.0,13.0,89,0.00,,---,0.00,VWS V14.01,2013-01-27 23:49:00,
2013-01-27 18:54:00,24.1,21.6,30.36,SE,145,6.0,13.0,90,0.00,,---,0.00,VWS V14.01,2013-01-27 23:54:00,
2013-01-27 18:59:00,24.0,21.5,30.36,SE,146,8.0,13.0,90,0.00,,---,0.00,VWS V14.01,2013-01-27 23:59:00,
2013-01-27 19:04:00,24.0,21.5,30.36,SE,127,6.0,11.0,90,0.00,,---,0.00,VWS V14.01,2013-01-28 00:04:00,
2013-01-27 19:09:00,24.0,21.8,30.36,SSE,148,2.0,11.0,91,0.00,,---,0.00,VWS V14.01,2013-01-28 00:09:00,
2013-01-27 19:14:00,24.0,21.8,30.36,SSE,157,6.0,12.0,91,0.00,,---,0.00,VWS V14.01,2013-01-28 00:14:00,
2013-01-27 19:19:00,24.0,21.8,30.36,SSE,163,10.0,12.0,91,0.00,,---,0.00,VWS V14.01,2013-01-28 00:19:00,
2013-01-27 19:24:00,23.9,21.7,30.36,ESE,115,7.0,12.0,91,0.00,,---,0.00,VWS V14.01,2013-01-28 00:24:00,
2013-01-27 19:30:00,23.9,21.7,30.36,SE,146,6.0,12.0,91,0.00,,---,0.00,VWS V14.01,2013-01-28 00:30:00,
2013-01-27 19:35:00,23.9,21.7,30.35,SSE,155,6.0,12.0,91,0.00,,---,0.00,VWS V14.01,2013-01-28 00:35:00,
2013-01-27 19:40:00,23.8,21.6,30.34,East,101,4.0,15.0,91,0.00,,---,0.00,VWS V14.01,2013-01-28 00:40:00,
2013-01-27 19:45:00,23.9,21.7,30.33,SE,127,5.0,15.0,91,0.00,,---,0.00,VWS V14.01,2013-01-28 00:45:00,
2013-01-27 19:50:00,23.9,21.7,30.33,SE,136,6.0,15.0,91,0.00,,---,0.00,VWS V14.01,2013-01-28 00:50:00,
2013-01-27 19:55:00,23.9,21.9,30.34,SE,129,5.0,15.0,92,0.00,,---,0.00,VWS V14.01,2013-01-28 00:55:00,
2013-01-27 20:00:00,24.0,22.0,30.34,SSE,162,5.0,15.0,92,0.00,,---,0.00,VWS V14.01,2013-01-28 01:00:00,
2013-01-27 20:06:00,24.0,22.0,30.34,East,94,7.0,11.0,92,0.00,,---,0.00,VWS V14.01,2013-01-28 01:06:00,
2013-01-27 20:11:00,24.1,22.1,30.34,SSE,147,4.0,12.0,92,0.00,,---,0.00,VWS V14.01,2013-01-28 01:11:00,
2013-01-27 20:16:00,24.1,22.1,30.34,ESE,111,6.0,13.0,92,0.00,,---,0.00,VWS V14.01,2013-01-28 01:16:00,
2013-01-27 20:21:00,24.1,22.1,30.33,SSE,160,9.0,13.0,92,0.00,,---,0.00,VWS V14.01,2013-01-28 01:21:00,
2013-01-27 20:26:00,24.1,22.1,30.32,SE,134,9.0,13.0,92,0.00,,---,0.00,VWS V14.01,2013-01-28 01:26:00,
2013-01-27 20:31:00,24.1,22.1,30.31,East,90,10.0,13.0,92,0.00,,---,0.00,VWS V14.01,2013-01-28 01:31:00,
2013-01-27 20:37:00,24.1,22.4,30.28,ESE,119,10.0,13.0,93,0.00,,---,0.00,VWS V14.01,2013-01-28 01:37:00,
2013-01-27 20:42:00,24.1,22.4,30.27,ESE,117,8.0,19.0,93,0.00,,---,0.00,VWS V14.01,2013-01-28 01:42:00,
2013-01-27 20:47:00,24.1,22.4,30.26,SE,129,13.0,19.0,93,0.00,,---,0.00,VWS V14.01,2013-01-28 01:47:00,
2013-01-27 20:52:00,24.2,22.5,30.26,East,96,8.0,19.0,93,0.00,,---,0.00,VWS V14.01,2013-01-28 01:52:00,
2013-01-27 20:57:00,24.4,22.7,30.26,East,82,16.0,19.0,93,0.00,,---,0.00,VWS V14.01,2013-01-28 01:57:00,
2013-01-27 21:02:00,24.4,22.7,30.26,ESE,116,3.0,13.0,93,0.00,,---,0.00,VWS V14.01,2013-01-28 02:02:00,
2013-01-27 21:07:00,24.6,22.9,30.26,SE,143,2.0,13.0,93,0.00,,---,0.00,VWS V14.01,2013-01-28 02:07:00,
2013-01-27 21:12:00,24.8,23.3,30.25,SE,129,5.0,13.0,94,0.00,,---,0.00,VWS V14.01,2013-01-28 02:12:00,
2013-01-27 21:17:00,25.1,23.6,30.25,ESE,115,6.0,13.0,94,0.00,,---,0.00,VWS V14.01,2013-01-28 02:17:00,
2013-01-27 21:22:00,25.3,23.8,30.24,ESE,109,5.0,13.0,94,0.00,,---,0.00,VWS V14.01,2013-01-28 02:22:00,
2013-01-27 21:28:00,25.6,24.1,30.24,ESE,105,8.0,17.0,94,0.00,,---,0.00,VWS V14.01,2013-01-28 02:28:00,
2013-01-27 21:33:00,25.7,24.2,30.26,SSE,167,15.0,17.0,94,0.00,,---,0.00,VWS V14.01,2013-01-28 02:33:00,
2013-01-27 21:38:00,25.8,24.3,30.25,ESE,121,6.0,17.0,94,0.00,,---,0.00,VWS V14.01,2013-01-28 02:38:00,
2013-01-27 21:43:00,25.9,24.4,30.27,SSE,149,7.0,17.0,94,0.00,,---,0.00,VWS V14.01,2013-01-28 02:43:00,
2013-01-27 21:48:00,25.9,24.4,30.28,South,188,7.0,17.0,94,0.00,,---,0.00,VWS V14.01,2013-01-28 02:48:00,
2013-01-27 21:53:00,25.9,24.2,30.24,SE,139,13.0,18.0,93,0.00,,---,0.00,VWS V14.01,2013-01-28 02:53:00,
2013-01-27 21:58:00,25.9,24.2,30.22,ESE,119,12.0,18.0,93,0.00,,---,0.00,VWS V14.01,2013-01-28 02:58:00,
2013-01-27 22:03:00,25.9,24.4,30.20,SE,136,14.0,18.0,94,0.00,,---,0.00,VWS V14.01,2013-01-28 03:03:00,
2013-01-27 22:08:00,26.0,24.5,30.18,SSE,159,16.0,18.0,94,0.00,,---,0.00,VWS V14.01,2013-01-28 03:08:00,
2013-01-27 22:13:00,26.2,24.7,30.19,ESE,119,9.0,19.0,94,0.00,,---,0.00,VWS V14.01,2013-01-28 03:13:00,
2013-01-27 22:18:00,26.3,24.8,30.21,SSE,149,9.0,19.0,94,0.00,,---,0.00,VWS V14.01,2013-01-28 03:18:00,
2013-01-27 22:24:00,26.4,24.9,30.24,North,352,0.0,19.0,94,0.00,,---,0.00,VWS V14.01,2013-01-28 03:24:00,
2013-01-27 22:29:00,26.6,25.1,30.23,SSE,153,6.0,19.0,94,0.00,,---,0.00,VWS V14.01,2013-01-28 03:29:00,
2013-01-27 22:34:00,26.7,25.2,30.22,SE,136,9.0,19.0,94,0.00,,---,0.00,VWS V14.01,2013-01-28 03:34:00,
2013-01-27 22:39:00,26.9,25.4,30.20,SSE,166,11.0,19.0,94,0.00,,---,0.00,VWS V14.01,2013-01-28 03:39:00,
2013-01-27 22:44:00,27.1,25.4,30.17,SE,138,10.0,21.0,93,0.00,,---,0.00,VWS V14.01,2013-01-28 03:44:00,
2013-01-27 22:49:00,27.4,25.9,30.16,SSE,159,6.0,21.0,94,0.00,,---,0.00,VWS V14.01,2013-01-28 03:49:00,
2013-01-27 22:54:00,27.8,26.3,30.19,SE,124,10.0,21.0,94,0.00,,---,0.00,VWS V14.01,2013-01-28 03:54:00,
2013-01-27 22:59:00,28.0,26.2,30.18,ESE,113,8.0,21.0,93,0.00,,---,0.00,VWS V14.01,2013-01-28 03:59:00,
2013-01-27 23:04:00,28.2,26.4,30.17,ESE,111,8.0,14.0,93,0.00,,---,0.00,VWS V14.01,2013-01-28 04:04:00,
2013-01-27 23:10:00,28.3,26.5,30.17,SE,143,7.0,14.0,93,0.00,,---,0.00,VWS V14.01,2013-01-28 04:10:00,
2013-01-27 23:15:00,28.4,26.6,30.17,ESE,120,9.0,14.0,93,0.00,,---,0.00,VWS V14.01,2013-01-28 04:15:00,
2013-01-27 23:20:00,28.5,26.7,30.17,SE,133,8.0,14.0,93,0.00,,---,0.00,VWS V14.01,2013-01-28 04:20:00,
2013-01-27 23:25:00,28.6,26.8,30.17,ESE,110,10.0,14.0,93,0.00,,---,0.00,VWS V14.01,2013-01-28 04:25:00,
2013-01-27 23:30:00,28.9,27.1,30.16,SE,134,4.0,17.0,93,0.00,,---,0.00,VWS V14.01,2013-01-28 04:30:00,
2013-01-27 23:35:00,29.0,27.2,30.17,South,176,4.0,18.0,93,0.00,,---,0.00,VWS V14.01,2013-01-28 04:35:00,
2013-01-27 23:40:00,29.0,27.0,30.17,SE,143,8.0,18.0,92,0.00,,---,0.00,VWS V14.01,2013-01-28 04:40:00,
2013-01-27 23:45:00,29.0,27.0,30.17,SE,135,3.0,18.0,92,0.00,,---,0.00,VWS V14.01,2013-01-28 04:45:00,
2013-01-27 23:50:00,29.0,27.0,30.18,ESE,115,5.0,18.0,92,0.00,,---,0.00,VWS V14.01,2013-01-28 04:50:00,
2013-01-27 23:56:00,29.1,27.1,30.18,SE,135,3.0,18.0,92,0.00,,---,0.00,VWS V14.01,2013-01-28 04:56:00,